This is the latest recevied weather packets stored in our database for station/object KC8YYF. If no packets are shown the sender has not sent any weather packets the latest 10 day(s).
| Time | Temp. | Humidity | Pressure | Rain* | Wind** | Luminosity | Snow |
|---|---|---|---|---|---|---|---|
| 1777941189 | 17.78° C | 68% | 1007.5 hPa | 0 mm | - | 0 W/m² | - |
| 1777940885 | 17.78° C | 70% | 1007.5 hPa | 0 mm | - | 0 W/m² | - |
| 1777940583 | 17.78° C | 69% | 1007.4 hPa | 0 mm | - | 0 W/m² | - |
| 1777940281 | 17.78° C | 68% | 1007.7 hPa | 0 mm | - | 0 W/m² | - |
| 1777939977 | 17.78° C | 68% | 1007.3 hPa | 0 mm | - | 0 W/m² | - |
| 1777939675 | 17.78° C | 67% | 1007.4 hPa | 0 mm | - | 1 W/m² | - |
| 1777939372 | 18.33° C | 66% | 1007.3 hPa | 0 mm | - | 2 W/m² | - |
| 1777939069 | 18.89° C | 65% | 1007.2 hPa | 0 mm | - | 4 W/m² | - |
| 1777938765 | 18.89° C | 61% | 1007.5 hPa | 0 mm | - | 5 W/m² | - |
| 1777938462 | 19.44° C | 60% | 1007.3 hPa | 0 mm | - | 5 W/m² | - |
| 1777938160 | 19.44° C | 60% | 1007.6 hPa | 0 mm | - | 11 W/m² | - |
| 1777937856 | 20° C | 61% | 1007.7 hPa | 0 mm | - | 11 W/m² | - |
| 1777937551 | 20° C | 59% | 1007.5 hPa | 0 mm | - | 20 W/m² | - |
| 1777937249 | 20° C | 58% | 1007.5 hPa | 0 mm | - | 16 W/m² | - |
| 1777936946 | 20° C | 59% | 1007.6 hPa | 0 mm | - | 9 W/m² | - |
| 1777936642 | 20° C | 59% | 1007.5 hPa | 0 mm | - | 6 W/m² | - |
| 1777936339 | 20.56° C | 56% | 1007.5 hPa | 0 mm | - | 10 W/m² | - |
| 1777936035 | 21.11° C | 57% | 1007.6 hPa | 0 mm | - | 22 W/m² | - |
| 1777935734 | 21.11° C | 54% | 1007.6 hPa | 0 mm | - | 39 W/m² | - |
| 1777935432 | 21.11° C | 57% | 1007.6 hPa | 0 mm | - | 59 W/m² | - |
| 1777935128 | 20.56° C | 56% | 1007.6 hPa | 0 mm | - | 33 W/m² | - |
| 1777934825 | 20.56° C | 55% | 1007.6 hPa | 0 mm | - | 29 W/m² | - |
| 1777934523 | 20.56° C | 56% | 1007.7 hPa | 0 mm | - | 27 W/m² | - |
| 1777934219 | 21.11° C | 57% | 1007.7 hPa | 0 mm | - | 35 W/m² | - |
| 1777933914 | 21.67° C | 56% | 1007.5 hPa | 0 mm | - | 34 W/m² | - |
* Rain latest hour (hover to see other rain measurements)
** Current wind speed in m/s (hover to see current wind gust speed)